If you wish to contribute or participate in the discussions about articles you are invited to join SKYbrary as a registered user

 Actions

Alesund/Vigra

From SKYbrary Wiki

ENAL
Airport
ICAO: ENAL
Summary
Name Alesund/Vigra
Region Europe
Territory Norway NO.gif
Location Alesund/Vigra
Serving
Coordinates 62° 33' 38.50" N, 6° 6' 40.65" E
Runways
Designator Length Width Surface ROPS
7/25 2314 m7,591.864 ft <br /> 45 m147.638 ft <br /> ASP yes/yes


METAR
Observation ENAL 152250Z 27013KT 9999 VCSH SCT025CB SCT053 07/03 Q1003
Station Alesund / Vigra
Date/Time 15 October 2021 22:50:00
Wind direction 270°
Wind speed 13 kts
Lowest cloud amount scattered clouds
Temperature 7°C
Dew point 3°C
Humidity 75%
QNH 1003 hPa
Weather condition in vicinity: showers


Alesund/Vigra Airport

ICAO: ENAL IATA: AES

Description

Airport serving Alesund, Norway.

Climatology

Temperate Marine climate/Oceanic climate (Köppen climate classification Cfb). Moderately cool summer and comparatively warm winter with a temperature range of only 14°C57.2 °F <br />287.15 K <br />516.87 °R <br />. Prevailing south-westerly winds from the Atlantic Ocean.

Maps

Terrain

Loading map...

Airport Layout

Loading map...


Accidents & Serious Incidents at or in vicinity of ENAL

None on SKYbrary